Miscellaneous Local Product
Issued by NWS Hastings, NE

Home | Current Version | Previous Version | Graphics & Text | Print | Product List | Glossary On
Versions: 1 2 3 4 5 6 7 8 9 10 11 12 13 14 15 16 17 18 19 20 21 22 23 24 25 26 27 28 29 30 31 32 33 34 35 36 37 38 39 40 41 42 43 44 45 46 47 48 49 50
000
AXUS43 KGID 301902
MISGRI

GID CWA HOURLY WEATHER ROUNDUP
NATIONAL WEATHER SERVICE HASTINGS NE
100 PM CST FRI JAN 30 2015

NOTE: "FAIR" INDICATES FEW OR NO CLOUDS BELOW 12,000 FEET WITH NO
SIGNIFICANT WEATHER AND/OR OBSTRUCTIONS TO VISIBILITY.

...SOUTH CENTRAL NEBRASKA...

CITY           SKY/WX    TMP DP  RH WIND       PRES   REMARKS
GRAND ISLAND   PTSUNNY   41  26  55 S13       30.36F
HASTINGS       CLOUDY    42  25  50 S13G21    30.34F
KEARNEY        PTSUNNY   43  25  49 S21       30.32F
ORD            PTSUNNY   39  26  59 S15       30.30F WCI  31
YORK           PTSUNNY   37  27  65 S13       30.40F WCI  29
AURORA         PTSUNNY   39  27  62 S13       30.38F WCI  31
LEXINGTON      CLOUDY    44  26  49 S18G29    30.30F
HOLDREGE       CLOUDY    40  25  54 S20       30.33F WCI  31
HEBRON         PTSUNNY   40  25  55 S10G18    30.42F WCI  33

...NEBRASKA PANHANDLE...

CITY           SKY/WX    TMP DP  RH WIND       PRES   REMARKS
CHADRON        MOSUNNY   46  26  45 VRB6      30.16F
ALLIANCE       PTSUNNY   47  24  40 CALM      30.14F
SCOTTSBLUFF    CLOUDY    39  27  62 W6        30.16F WCI  35
SIDNEY         PTSUNNY   43  27  53 S9        30.15F

...WESTERN AND NORTH CENTRAL NEBRASKA...

CITY           SKY/WX    TMP DP  RH WIND       PRES   REMARKS
VALENTINE      PTSUNNY   48  24  39 SW20G28   30.16F
AINSWORTH      PTSUNNY   42  26  51 S15G21    30.21F
ONEILL         PTSUNNY   40  27  59 S20       30.27F WCI  31
BROKEN BOW     PTSUNNY   44  26  49 S16G24    30.27F
IMPERIAL       PTSUNNY   47  27  45 S16G24    30.20F
NORTH PLATTE   PTSUNNY   45  26  47 S16G23    30.22F
MCCOOK         CLOUDY    46  26  45 S17       30.26F

...EASTERN NEBRASKA...

CITY           SKY/WX    TMP DP  RH WIND       PRES   REMARKS
NORFOLK        MOSUNNY   39  27  62 S14       30.34F WCI  31
SO SIOUX CITY  MOSUNNY   35  25  66 S14       30.39F WCI  26
TEKAMAH        MOSUNNY   35  23  61 S13       30.43F WCI  26
COLUMBUS       MOSUNNY   39  25  56 S14G20    30.38F WCI  31
ALBION         MOSUNNY   38  26  62 S14       30.35F WCI  30
OMAHA EPPLEY   CLOUDY    32  20  61 S10       30.46F WCI  24
OFFUTT AFB     SUNNY     34  21  59 S7        30.45F WCI  28
MILLARD        MOSUNNY   33  23  66 S7        30.47F WCI  27
LINCOLN        MOSUNNY   37  25  61 S10       30.43F WCI  30
NEBRASKA CITY  MOSUNNY   32  20  62 S7        30.48F WCI  25
BEATRICE       PTSUNNY   35  25  66 S9        30.45F WCI  27
FALLS CITY     PTSUNNY   34  23  64 S7        30.48F WCI  28

...NORTHERN KANSAS...

CITY           SKY/WX    TMP DP  RH WIND       PRES   REMARKS
GOODLAND       CLOUDY    48  33  56 SW25G35   30.22F
HILL CITY      CLOUDY    44  25  47 S13       30.34F
NORTON         CLOUDY    45  21  39 S16       30.30
PHILLIPSBURG   CLOUDY    46  27  46 S16       30.35F
SMITH CENTER   PTSUNNY   43  25  49 S17       30.38F
BELOIT         SUNNY     45  27  49 S10G16    30.41F
HAYS           CLOUDY    43  23  45 S17       30.37F
RUSSELL        CLOUDY    43  27  53 S18       30.38F
CONCORDIA      CLOUDY    41  27  57 S10       30.42F
SALINA         CLOUDY    44  27  51 S13       30.44F
TOPEKA         MOSUNNY   36  23  59 SW6       30.51F WCI  31



USA.gov is the U.S. government's official web portal to all federal, state and local government web resources and services.